Regional Weather Roundup
Issued by NWS Glasgow, MT

Home | Current Version | Previous Version | Text Only | Print | Product List | Glossary On
Versions: 1 2 3 4 5 6 7 8 9 10 11 12 13 14 15 16 17 18 19 20 21 22 23 24 25 26 27 28 29 30 31 32 33 34 35 36 37 38 39 40 41 42 43 44 45 46 47 48 49 50
000
ASUS45 KGGW 271615
RWRGGW
HOURLY REGIONAL WEATHER ROUNDUP FOR NORTHEAST MONTANA
NATIONAL WEATHER SERVICE GLASGOW MONTANA
1000 AM MDT FRI MAY 27 2016

NOTE: "FAIR" INDICATES FEW OR NO CLOUDS BELOW 12,000 FEET WITH NO
SIGNIFICANT WEATHER AND/OR OBSTRUCTIONS TO VISISBILITY.

NORTHEAST MONTANA


CITY           SKY/WX    TMP DP  RH WIND       PRES   REMARKS
GLASGOW        CLOUDY    60  48  64 VRB5      29.88F
PLENTYWOOD       N/A     58  51  78 N5          N/A
WOLF POINT     MOSUNNY   63  50  62 VRB3      29.89S
JORDAN           N/A     56  49  77 N8        29.88F
WINNETT          N/A     57  47  69 SW2         N/A
SIDNEY         SUNNY     59  52  77 NE6       29.87F
GLENDIVE       CLOUDY    55  50  82 N5        29.90F
SCOBEY           N/A     59  47  64 CALM      29.88F
OPHEIM           N/A     57  46  67 SE1       29.73F

FORT PECK REPORTS


CITY           SKY/WX    TMP DP  RH WIND       PRES   REMARKS
FORT PECK        N/A     56  53  90 S3          N/A
THE PINES        N/A     57  48  72 NE5         N/A

SOUTHEAST MONTANA


CITY           SKY/WX    TMP DP  RH WIND       PRES   REMARKS
BILLINGS       MOSUNNY   59  45  59 S3        29.89F
MILES CITY     CLOUDY    60  51  72 VRB3      29.86F
BAKER          MOSUNNY   61  49  64 NW9       29.87F
LIVINGSTON     CLOUDY    56  41  57 W21G29    29.91F

CENTRAL MONTANA


CITY           SKY/WX    TMP DP  RH WIND       PRES   REMARKS
HAVRE          SUNNY     61  50  67 E6        29.86F
LEWISTOWN      SUNNY     61  45  55 NE5       29.88F
GREAT FALLS    CLOUDY    59  45  59 SW9       29.88S
CUT BANK       PTSUNNY   58  40  51 W20G29    29.85S
HELENA         MOSUNNY   56  48  74 VRB7      29.91F
BUTTE          MOSUNNY   50  38  63 CALM      29.96F
BOZEMAN        CLOUDY    50  45  83 NE6       29.95F

WESTERN MONTANA


CITY           SKY/WX    TMP DP  RH WIND       PRES   REMARKS
MISSOULA       PTSUNNY   55  45  68 VRB3      29.96F
KALISPELL      NOT AVBL

NORTH DAKOTA


CITY           SKY/WX    TMP DP  RH WIND       PRES   REMARKS
WILLISTON      PTSUNNY   64  51  62 N9        29.86F
DICKINSON      MOSUNNY   62  46  55 N7        29.83F
MINOT          CLOUDY    61  54  77 NW8       29.82S
BISMARCK       PTSUNNY   65  52  62 N8        29.83S

SOUTHERN SASKATCHEWAN


CITY           SKY/WX    TMP DP  RH WIND       PRES   REMARKS
REGINA         MOSUNNY   66  54  63 E5        29.88F
ESTEVAN        CLOUDY    61  54  77 N9        29.85F
SWIFT CURRENT  SUNNY     63  48  59 S14       29.88F




USA.gov is the U.S. government's official web portal to all federal, state and local government web resources and services.